Flag for Canada Weather past 2 weeks in Igloolik, Nunavut, Canada

Now
10 °F

Clear.


Feels Like: -3 °F
Forecast: 5 / 24 °F
Wind: 9 mph from East

Location: Hall Beach

Current Time: Apr 25, 2015 at 3:34:48 AM

Latest Report: Apr 25, 2015 at 3:00 AM


Visibility: 9 mi

Pressure: 30.66 "Hg

Humidity: 85%

Dew point: 7 °F

Location of IgloolikLocation

Historic Weather in Igloolik — Graph

°F

Igloolik temperature yesterday

Maximum temperature yesterday: 19 °F (at 1:00 PM)
Minimum temperature yesterday: 16 °F (at 12:00 AM)
Average temperature yesterday: 17 °F

Past Weeks' High & Low Weather Summary

 TemperatureHumidityPressure
High19 °F (Apr 24, 1:00 PM)93% (Apr 23, 4:00 PM)30.66 "Hg (Apr 23, 4:00 PM)
Low-27 °F (Apr 13, 7:00 AM)62% (Apr 13, 9:00 AM)29.44 "Hg (Apr 12, 10:00 AM)
Average-4 °F81%29.93 "Hg
* Reported Apr 10 2:00 AM — Apr 25 2:00 AM, Igloolik, Weather by CustomWeather, © 2015

Note: Actual official high and low records may vary slightly from our data, if they occured in-between our weather recording intervals... More about our weather records

Advertising

Igloolik weather history for previous 24 hours

 ConditionsComfort  
Time TempWeatherWind HumidityBarometerVisibility
2:00 AM
Sat, Apr 25
12 °FClear.10 mph85%30.66 "Hg9 mi
1:00 AM12 °FClear.10 mph85%30.65 "Hg9 mi
12:00 AM14 °FPassing clouds.8 mph85%30.66 "Hg9 mi
11:00 PM
Fri, Apr 24
16 °FPartly sunny.10 mph86%30.65 "Hg9 mi
10:00 PM18 °FOvercast.13 mph93%30.65 "Hg9 mi
9:00 PM19 °FOvercast.10 mph86%30.65 "Hg9 mi
7:00 PM19 °FLight snow. Mostly cloudy.15 mph93%30.65 "Hg15 mi
6:00 PM19 °FLight snow. Low clouds.17 mph93%30.64 "Hg15 mi
5:00 PM19 °FLight snow. Mostly cloudy.17 mph93%30.64 "Hg15 mi
4:00 PM19 °FLight snow. Partly sunny.16 mph86%30.64 "Hg15 mi
3:00 PM19 °FLight snow. More clouds than sun.17 mph86%30.64 "Hg12 mi
2:00 PM19 °FLight snow. Ice fog.18 mph86%30.63 "Hg5 mi
1:00 PM19 °FLight snow. Ice fog.17 mph86%30.63 "Hg3 mi
12:00 PM18 °FLight snow. Ice fog.16 mph93%30.63 "Hg2 mi
11:00 AM18 °FLight snow. More clouds than sun.21 mph86%30.62 "Hg5 mi
10:00 AM18 °FLight snow. Mostly cloudy.18 mph86%30.62 "Hg5 mi
9:00 AM18 °FLight snow. Overcast.20 mph86%30.62 "Hg8 mi
8:00 AM16 °FLight snow. Ice fog.17 mph93%30.61 "Hg3 mi
7:00 AM16 °FLight snow. Partly sunny.21 mph93%30.61 "Hg8 mi
6:55 AM16 °FLight snow. Partly sunny.18 mph93%30.61 "Hg8 mi
6:00 AM16 °FLight snow. More clouds than sun.20 mph93%30.60 "Hg6 mi
5:00 AM16 °FLight snow. Overcast.20 mph93%30.60 "Hg4 mi
4:01 AM16 °FLight snow. Mostly cloudy.20 mph93%30.60 "Hg3 mi
4:00 AM16 °FLight snow. Mostly cloudy.20 mph93%30.60 "Hg2 mi
3:00 AM16 °FLight snow. Mostly cloudy.24 mph93%30.59 "Hg6 mi
Weather by CustomWeather, © 2015

See weather overviewHow to use our weather pages